Location: Vojnic
(45.3264°N, 15.6972°E)
Time: 06:05:38
(UTC+01:00)

USA 238 DEB - Pass Details

Date: 24 September 2022
Orbit: 955 x 1257 km, 63.4° (Epoch: 25 November)

Event Time Altitude Azimuth Distance (km) Brightness Sun altitude
Rises 06:03:48 0° 161° (SSE) 3,632 6.6 -8.3°
Reaches altitude 10° 06:07:27 10° 139° (SE) 2,719 6.3 -7.7°
Maximum altitude 06:10:56 15° 105° (ESE) 2,386 6.7 -7.1°
Drops below altitude 10° 06:14:30 10° 72° (ENE) 2,811 7.6 -6.4°
Sets 06:18:22 0° 51° (NE) 3,827 7.7 -5.8°
